Location: Kapla
(46.2483°N, 15.0094°E)
Time: 20:52:14
(UTC+00:00)

Cosmos 1980 Rocket - Pass Details

Date: 03 March 2021
Orbit: 828 x 851 km, 71.0° (Epoch: 20 April)

Event Time Altitude Azimuth Distance (km) Brightness Sun altitude
Rises 17:09:37 0° 224° (SW) 3,385 6.2 -4.3°
Reaches altitude 10° 17:12:08 10° 230° (SW) 2,457 5.6 -4.8°
Maximum altitude 17:17:33 46° 303° (WNW) 1,122 3.4 -5.7°
Drops below altitude 10° 17:23:02 10° 17° (NNE) 2,484 4.5 -6.7°
Sets 17:25:37 0° 24° (NNE) 3,425 5.1 -7.1°
